TimeCST,TemperatureF,Dew PointF,Humidity,Sea Level PressureIn,VisibilityMPH,Wind Direction,Wind SpeedMPH,Gust SpeedMPH,PrecipitationIn,Events,Conditions,WindDirDegrees,DateUTC
12:54 AM,24.8,17.6,74,30.21,10.0,North,9.2,-,N/A,,Overcast,350,2013-03-02 06:54:00
1:54 AM,25.0,17.1,72,30.23,10.0,North,8.1,-,N/A,,Overcast,350,2013-03-02 07:54:00
2:54 AM,26.1,16.0,66,30.22,10.0,Variable,5.8,-,N/A,,Overcast,0,2013-03-02 08:54:00
3:54 AM,25.0,16.0,69,30.21,10.0,NNW,8.1,17.3,N/A,,Overcast,340,2013-03-02 09:54:00
4:54 AM,24.8,15.8,69,30.19,10.0,NNW,6.9,-,N/A,,Overcast,340,2013-03-02 10:54:00
5:54 AM,24.1,16.0,71,30.23,10.0,Variable,6.9,-,N/A,,Overcast,0,2013-03-02 11:54:00
6:54 AM,24.1,15.1,69,30.24,10.0,North,8.1,-,N/A,,Overcast,360,2013-03-02 12:54:00
7:54 AM,23.0,12.9,65,30.26,10.0,North,9.2,-,N/A,,Overcast,360,2013-03-02 13:54:00
8:54 AM,24.1,12.0,60,30.26,10.0,Variable,6.9,-,N/A,,Clear,0,2013-03-02 14:54:00
9:54 AM,24.1,10.0,55,30.26,10.0,North,9.2,-,N/A,,Clear,350,2013-03-02 15:54:00
10:54 AM,26.1,12.0,55,30.27,10.0,North,10.4,-,N/A,,Clear,10,2013-03-02 16:54:00
11:54 AM,27.0,10.9,51,30.27,10.0,North,9.2,-,N/A,,Clear,10,2013-03-02 17:54:00
12:54 PM,28.0,10.0,47,30.25,10.0,North,9.2,-,N/A,,Clear,350,2013-03-02 18:54:00
1:54 PM,27.0,9.0,47,30.23,10.0,North,11.5,20.7,N/A,,Clear,360,2013-03-02 19:54:00
2:54 PM,28.0,10.9,49,30.23,10.0,North,8.1,-,N/A,,Clear,360,2013-03-02 20:54:00
3:54 PM,28.0,9.0,45,30.22,10.0,North,9.2,-,N/A,,Clear,350,2013-03-02 21:54:00
4:54 PM,27.0,10.9,51,30.24,10.0,North,9.2,-,N/A,,Clear,350,2013-03-02 22:54:00
5:54 PM,25.0,10.0,53,30.25,10.0,NNW,4.6,-,N/A,,Clear,340,2013-03-02 23:54:00
6:54 PM,23.0,10.9,60,30.25,10.0,NNW,3.5,-,N/A,,Clear,330,2013-03-03 00:54:00
7:54 PM,21.9,10.9,63,30.25,10.0,Calm,Calm,-,N/A,,Clear,0,2013-03-03 01:54:00
8:54 PM,18.0,10.9,74,30.25,10.0,Calm,Calm,-,N/A,,Clear,0,2013-03-03 02:54:00
9:54 PM,18.0,10.0,71,30.24,10.0,Calm,Calm,-,N/A,,Clear,0,2013-03-03 03:54:00
10:54 PM,16.0,10.0,77,30.24,10.0,Calm,Calm,-,N/A,,Clear,0,2013-03-03 04:54:00
11:54 PM,15.1,10.0,80,30.23,10.0,NW,3.5,-,N/A,,Clear,320,2013-03-03 05:54:00